Location: *
(37.4917°N, 71.5558°E)
Time: 09:02:20
(UTC+00:00)

Cosmos 1300 Rocket - Pass Details

Date: 09 April 2020
Orbit: 603 x 625 km, 82.5° (Epoch: 03 June)

Event Time Altitude Azimuth Distance (km) Brightness Sun altitude
Rises 23:21:26 0° 342° (NNW) 2,863 7.1 -16.8°
Reaches altitude 10° 23:23:48 10° 333° (NNW) 1,956 6.1 -16.4°
Maximum altitude 23:27:40 33° 269° (W) 1,025 4.2 -15.7°
Enters shadow 23:29:06 26° 232° (SW) 1,198 4.5 -15.4°
